[[{"header":{"parameterUnit":"m.s-1","parameterCategory":1,"la1":30.2991,"la2":30.254,"lo1":-89.0895,"lo2":-89.0444,"dy":0.0017,"dx":0.0017,"nx":28,"ny":28,"refTime":"2025-05-18T21:00:00:Z","depth":0,"parameterNumber":2,"parameterNumberName":"U-component_of_WINDS"},"data":[0,0,0,0,0,0,0,0,0,0,0,0,0,0,0,0,0,0,0,0,0,0,0,0,0,0,0,0,0,0,0,0,0,0,0,0,0,0,0,0,0,0,0,0,0,0,0,0,0,0,0,0,0,0,0,0,0,0,0.1063,0.1063,0,0.1046,0.1045,0.1045,0.1024,0.1023,0.1023,0.1023,0.1004,0.1004,0.1004,0,0,0,0,0,0,0,0,0,0,0,0,0,0.1078,0.1078,0.1064,0.1063,0.1063,0.1046,0.1045,0.1045,0.1024,0.1023,0.1023,0.1023,0.1005,0.1004,0.1004,0,0,0,0,0,0,0,0,0,0,0,0,0,0.1067,0.1078,0.1064,0.105,0.1049,0.1046,0.1045,0.1045,0.1024,0.1023,0.1023,0.1022,0.1005,0.1004,0.1004,0.1012,0,0,0.1003,0.1003,0,0,0,0,0,0,0,0,0.1068,0.1067,0.1052,0.1051,0.105,0.1036,0.1044,0.1034,0.1024,0.1033,0.1023,0.1022,0.1015,0.1014,0.1012,0.1011,0.1011,0.1003,0.1003,0.1003,0.1003,0,0,0,0,0,0,0,0.1069,0.1068,0.1056,0.1052,0.1051,0.1045,0.1043,0.1042,0.1027,0.1033,0.1031,0.1029,0.1015,0.1012,0.1011,0.101,0.1003,0.1003,0.1003,0.1003,0.1014,0.1015,0,0,0,0,0,0,0.1072,0.1068,0.1057,0.1056,0.1058,0.1045,0.1043,0.1041,0.1027,0.1025,0.103,0.1028,0.1013,0.1012,0.1011,0.1019,0.1003,0.1003,0.1003,0.1014,0.1015,0.1015,0,0,0,0,0,0,0.1072,0.1071,0.1058,0.1062,0.106,0.1045,0.1044,0.1041,0.1039,0.1025,0.1022,0.103,0.1013,0.1011,0.1012,0.1018,0.1003,0.1002,0.1013,0.1014,0.1015,0.1035,0,0,0,0,0,0,0.1073,0.1071,0.1074,0.1062,0.1059,0.1059,0.1044,0.1041,0.1038,0.1036,0.1025,0.1022,0.1012,0.1012,0.1012,0.1017,0.1002,0.1013,0.1014,0.1015,0.1034,0.1036,0.1039,0,0,0,0,0,0.1073,0.1081,0.1075,0.1073,0.1063,0.106,0.1058,0.1046,0.1039,0.1042,0.1033,0.1023,0.1017,0.1013,0.1012,0.1017,0.1012,0.1013,0.1014,0.1033,0.1036,0.1039,0,0,0,0,0,0,0.1095,0.1079,0.1072,0.1076,0.1069,0.1056,0.106,0.105,0.1046,0.1044,0.1029,0.1027,0.1029,0.1023,0.1018,0.1024,0.1013,0.1014,0.1027,0.103,0.1033,0.1034,0.1002,0,0,0,0,0,0.11,0.1099,0.1085,0.109,0.1087,0.1074,0.1072,0.1063,0.1056,0.1053,0.1044,0.1037,0.1034,0.1032,0.1028,0.1033,0.103,0.1036,0.1038,0.104,0.1041,0.1042,0.1045,0.1019,0.1019,0.1018,0,0,0.1111,0.1102,0.1102,0.1094,0.1088,0.1087,0.1072,0.1071,0.107,0.1053,0.1053,0.1046,0.1037,0.104,0.104,0.1035,0.1048,0.1042,0.1044,0.1043,0.1044,0.1046,0.1048,0.1019,0.1019,0.1019,0,0,0.113,0.1123,0.1126,0.112,0.1111,0.1102,0.1103,0.1091,0.1085,0.1085,0.1072,0.107,0.1065,0.1059,0.1055,0.107,0.1061,0.107,0.1082,0.1083,0.1085,0.1087,0.1092,0.1094,0.1071,0.1071,0.1071,0,0.1144,0.1142,0.1129,0.1129,0.1125,0.111,0.1112,0.1107,0.1097,0.1094,0.1088,0.1081,0.1074,0.1074,0.1078,0.1075,0.1075,0.1071,0.1086,0.1088,0.1089,0.1093,0.1095,0.1072,0.1072,0.1071,0.1071,0,0.116,0.1158,0.1162,0.1152,0.1149,0.115,0.1137,0.1135,0.1127,0.1118,0.1117,0.1108,0.1102,0.1102,0.1093,0.11,0.1097,0.1089,0.1078,0.1093,0.1097,0.1098,0.1073,0.1073,0.1073,0.1072,0,0,0.1192,0.1175,0.1176,0.1171,0.1159,0.1158,0.1158,0.1151,0.115,0.1143,0.1143,0.1138,0.113,0.1126,0.1116,0.1118,0.1129,0.1109,0.1108,0.1112,0.1136,0.1141,0.1144,0.1123,0.1123,0.1123,0.1136,0,0.1208,0.1208,0.1196,0.1198,0.1196,0.1181,0.1181,0.1173,0.1165,0.1162,0.1153,0.115,0.114,0.1137,0.1137,0.1128,0.1134,0.1127,0.1121,0.1121,0.1124,0.1146,0.1152,0.1165,0.1138,0.1138,0.1138,0,0.1227,0.1221,0.1224,0.1211,0.1209,0.121,0.1202,0.12,0.119,0.1184,0.1179,0.1169,0.1167,0.1157,0.1155,0.115,0.1147,0.1142,0.1143,0.1141,0.113,0.1144,0.1169,0.117,0.114,0.114,0.114,0,0.1249,0.1242,0.1242,0.1238,0.1224,0.1224,0.1218,0.1209,0.1205,0.1199,0.1196,0.119,0.1186,0.1181,0.1169,0.1163,0.1167,0.1156,0.1162,0.1162,0.1163,0.1163,0.1186,0.1162,0.1162,0.1162,0.1162,0,0.1268,0.127,0.1252,0.1252,0.1253,0.1239,0.1241,0.1233,0.1225,0.1222,0.1209,0.1207,0.1191,0.1188,0.1178,0.1177,0.1176,0.117,0.1168,0.1171,0.1172,0.1169,0.1167,0.1163,0.1162,0.1162,0.1162,0,0.1293,0.1281,0.128,0.1266,0.1263,0.1264,0.1252,0.1251,0.1242,0.124,0.1238,0.1224,0.1219,0.1206,0.1198,0.1191,0.1192,0.1188,0.1195,0.1194,0.1199,0.1199,0.1221,0.1223,0.1198,0.1198,0.1199,0,0.1306,0.1307,0.1293,0.129,0.1285,0.1281,0.1277,0.1263,0.126,0.1249,0.1249,0.1243,0.1237,0.123,0.1219,0.1212,0.1207,0.1215,0.1206,0.1209,0.1206,0.1206,0.1205,0.1217,0.1217,0.1218,0.1218,0,0.1329,0.1323,0.1318,0.1311,0.1307,0.1301,0.1294,0.1292,0.1277,0.1273,0.1268,0.1263,0.1254,0.1248,0.1239,0.1233,0.1222,0.1221,0.1221,0.1225,0.1229,0.1226,0.12,0.122,0.122,0.122,0.122,0.122,0.1348,0.1347,0.1337,0.1332,0.1325,0.1319,0.1317,0.1308,0.1303,0.1294,0.1286,0.1282,0.1271,0.1259,0.1253,0.1248,0.1243,0.1244,0.1244,0.1245,0.1246,0.123,0.1247,0.1247,0.1247,0.1246,0.1246,0,0.1369,0.1362,0.1357,0.1348,0.1344,0.1334,0.1326,0.1323,0.1319,0.131,0.1305,0.1298,0.1292,0.128,0.1272,0.1271,0.1266,0.1269,0.1269,0.1267,0.1252,0.1251,0.1273,0.1273,0.1273,0.1273,0.1273,0.1273,0.138,0.1379,0.1372,0.1367,0.1359,0.1354,0.135,0.1344,0.1337,0.133,0.1324,0.1317,0.1306,0.1298,0.1291,0.1288,0.1285,0.129,0.1285,0.1271,0.1268,0.1266,0.1266,0.129,0.129,0.1301,0.1301,0.1301]},{"header":{"parameterUnit":"m.s-1","parameterCategory":1,"la1":30.2991,"la2":30.254,"lo1":-89.0895,"lo2":-89.0444,"dy":0.0017,"dx":0.0017,"nx":28,"ny":28,"refTime":"2025-05-18T21:00:00:Z","depth":0,"parameterNumber":3,"parameterNumberName":"V-component_of_WINDS"},"data":[0,0,0,0,0,0,0,0,0,0,0,0,0,0,0,0,0,0,0,0,0,0,0,0,0,0,0,0,0,0,0,0,0,0,0,0,0,0,0,0,0,0,0,0,0,0,0,0,0,0,0,0,0,0,0,0,0,0,2.6568,2.6568,0,2.6585,2.6585,2.6586,2.6553,2.6552,2.6551,2.655,2.6565,2.6566,2.6568,0,0,0,0,0,0,0,0,0,0,0,0,0,2.6505,2.6506,2.6568,2.6568,2.6569,2.6585,2.6585,2.6586,2.6553,2.6552,2.655,2.6549,2.6564,2.6566,2.6568,0,0,0,0,0,0,0,0,0,0,0,0,0,2.6528,2.6506,2.6568,2.6554,2.6553,2.6585,2.6585,2.6586,2.6553,2.6552,2.655,2.6549,2.6564,2.6566,2.6568,2.6613,0,0,2.6574,2.6575,0,0,0,0,0,0,0,0,2.6527,2.653,2.6556,2.6555,2.6554,2.6565,2.6568,2.6595,2.6554,2.6553,2.655,2.6548,2.6566,2.6568,2.6575,2.6614,2.6614,2.6574,2.6576,2.6577,2.6577,0,0,0,0,0,0,0,2.6525,2.6529,2.6575,2.6557,2.6555,2.6546,2.6548,2.6573,2.6568,2.6553,2.6551,2.6553,2.6565,2.6573,2.6575,2.6615,2.6574,2.6576,2.6578,2.6578,2.6691,2.6693,0,0,0,0,0,0,2.6526,2.6528,2.6574,2.6575,2.6536,2.6549,2.6551,2.6563,2.6568,2.6567,2.6555,2.6552,2.657,2.6572,2.6575,2.6628,2.6577,2.6579,2.658,2.669,2.6692,2.6694,0,0,0,0,0,0,2.6524,2.653,2.6574,2.6551,2.6556,2.6552,2.6566,2.6565,2.6572,2.6569,2.6568,2.6564,2.6569,2.6572,2.6604,2.6628,2.658,2.6581,2.6688,2.669,2.6693,2.6735,0,0,0,0,0,0,2.6523,2.653,2.6548,2.6552,2.6557,2.6603,2.6568,2.6566,2.6576,2.6572,2.6577,2.6576,2.6568,2.6601,2.6606,2.663,2.6583,2.6685,2.6689,2.6692,2.6732,2.6739,2.6745,0,0,0,0,0,2.652,2.6558,2.6549,2.6554,2.658,2.6605,2.6608,2.6598,2.6578,2.6595,2.6594,2.6576,2.6625,2.6605,2.661,2.6635,2.6684,2.6688,2.6692,2.6728,2.6737,2.6745,0,0,0,0,0,0,2.6556,2.6559,2.6548,2.6588,2.6597,2.6599,2.6621,2.6607,2.6621,2.6617,2.6603,2.6604,2.6639,2.664,2.6617,2.6679,2.6651,2.6656,2.6677,2.6686,2.6692,2.6691,2.6585,0,0,0,0,0,2.6569,2.659,2.659,2.6626,2.6631,2.6625,2.6636,2.6627,2.6635,2.6638,2.6638,2.6646,2.6663,2.6674,2.6689,2.6731,2.6732,2.6751,2.6758,2.6764,2.6768,2.6791,2.6799,2.6707,2.6706,2.6706,0,0,2.6595,2.6599,2.6613,2.6633,2.6639,2.666,2.6628,2.6652,2.6667,2.6641,2.6672,2.6672,2.6679,2.6717,2.6733,2.6719,2.6794,2.6769,2.6773,2.6775,2.6796,2.6804,2.6812,2.6709,2.6709,2.6708,0,0,2.6653,2.6659,2.6689,2.6695,2.6704,2.67,2.6707,2.6712,2.6712,2.6742,2.6723,2.674,2.677,2.6776,2.6783,2.6844,2.6828,2.6849,2.6885,2.6906,2.6914,2.692,2.6942,2.695,2.6854,2.6854,2.6854,0,2.6685,2.6717,2.6706,2.6731,2.6741,2.6719,2.6749,2.6755,2.6768,2.6775,2.6759,2.6795,2.6799,2.6837,2.6852,2.6858,2.6866,2.6848,2.6914,2.692,2.6926,2.6946,2.6954,2.6856,2.6856,2.6856,2.6855,0,2.6754,2.6777,2.68,2.6815,2.6826,2.6854,2.6847,2.686,2.685,2.6848,2.6879,2.6882,2.6898,2.6906,2.6896,2.6943,2.6934,2.6916,2.6887,2.6937,2.6956,2.6964,2.686,2.6859,2.6858,2.6857,0,0,2.6836,2.6844,2.6853,2.6859,2.6867,2.6884,2.691,2.6926,2.6938,2.6947,2.6969,2.6994,2.6978,2.6986,2.6977,2.6996,2.7044,2.6975,2.6975,2.6988,2.7095,2.7108,2.7118,2.7033,2.7035,2.7036,2.7094,0,2.6894,2.6941,2.6932,2.6977,2.6997,2.6976,2.6999,2.7006,2.7004,2.7021,2.7018,2.7037,2.7014,2.7018,2.7036,2.7034,2.7065,2.703,2.7053,2.7053,2.7052,2.7128,2.7142,2.7197,2.7102,2.7103,2.7104,0,2.6969,2.6982,2.7029,2.7034,2.7042,2.7063,2.7077,2.7093,2.71,2.7098,2.7107,2.7094,2.7119,2.709,2.7125,2.7101,2.711,2.711,2.7112,2.7114,2.7082,2.7132,2.7214,2.7223,2.7115,2.7114,2.7114,0,2.7024,2.7053,2.7085,2.7091,2.7098,2.7113,2.7116,2.7122,2.7132,2.7144,2.715,2.7165,2.7173,2.7184,2.7175,2.7155,2.7211,2.7181,2.7209,2.7209,2.7222,2.7221,2.7307,2.7227,2.7227,2.7227,2.7227,0,2.709,2.7119,2.711,2.713,2.7162,2.7151,2.7183,2.7184,2.7189,2.7208,2.7191,2.7209,2.7196,2.7213,2.7206,2.7235,2.7239,2.7237,2.7235,2.7239,2.7239,2.7244,2.724,2.7229,2.7229,2.7228,2.7228,0,2.7157,2.7152,2.7185,2.7189,2.7191,2.7214,2.7217,2.7235,2.7232,2.7256,2.7261,2.7256,2.7275,2.7267,2.7287,2.7282,2.732,2.7312,2.7318,2.7316,2.7344,2.7342,2.7437,2.7449,2.7361,2.7362,2.7362,0,2.7199,2.7222,2.7228,2.724,2.7245,2.7264,2.7275,2.7264,2.7276,2.7286,2.7302,2.732,2.7333,2.7364,2.7362,2.7376,2.7369,2.7402,2.7371,2.7375,2.737,2.7369,2.7371,2.7408,2.7409,2.741,2.741,0,2.7276,2.7272,2.7289,2.7304,2.7318,2.7329,2.7339,2.735,2.734,2.7354,2.7373,2.7383,2.7404,2.7421,2.7434,2.7436,2.7422,2.742,2.7427,2.7431,2.7434,2.7433,2.7334,2.7418,2.7417,2.7416,2.7416,2.7416,2.7332,2.7351,2.7358,2.7377,2.7384,2.7393,2.7411,2.741,2.7426,2.7443,2.7435,2.7458,2.7464,2.748,2.7484,2.7501,2.7489,2.7499,2.7502,2.7505,2.7508,2.7431,2.7504,2.7503,2.7503,2.7503,2.7503,0,2.7407,2.7411,2.7429,2.7443,2.7458,2.7444,2.7454,2.7467,2.7487,2.7495,2.7508,2.753,2.7547,2.7546,2.7562,2.7575,2.7569,2.758,2.7579,2.7579,2.7519,2.7511,2.7585,2.7585,2.7585,2.7584,2.7584,2.7584,2.7448,2.748,2.7477,2.7512,2.7515,2.7537,2.7544,2.7553,2.7559,2.7585,2.7599,2.7599,2.7602,2.7618,2.7632,2.7632,2.7638,2.7651,2.7648,2.7592,2.7584,2.7576,2.7569,2.7653,2.7653,2.7707,2.7708,2.7708]}]]